Location: Kearney
(40.6990°N, 99.0810°W)
Time: 11:48:03
(UTC-05:00)

Daily predictions for brighter satellites

Satellite Brightness Start Highest point End
(mag) Time Altitude Azimuth Time Altitude Azimuth Time Altitude Azimuth
Spot 2 Rocket 4.0 21:13:21 10° SE 21:18:08 45° ENE 21:22:55 10° N
Cosmos 2016 Rocket 4.1 21:13:21 10° S 21:19:17 58° E 21:25:17 10° NNE
Cosmos 1697 Rocket 2.8 21:14:12 10° NNW 21:19:54 77° ENE 21:25:33 10° SSE
Cosmos 1656 4.0 21:14:51 10° NNW 21:20:29 70° WSW 21:25:59 10° SSE
Shenzhou-11 Module 1.9 21:19:00 10° WSW 21:21:59 84° SSE 21:24:58 10° ENE
SJ-11-01 4.4 21:18:54 10° SSE 21:23:32 61° ENE 21:28:13 10° N
Cosmos 1500 3.6 21:21:08 10° N 21:24:53 47° E 21:28:37 10° SSE
Resurs 1-3 3.6 21:22:13 10° SSE 21:26:35 75° ENE 21:30:59 10° N
ISS -2.7 21:24:05 10° S 21:26:47 24° SE 21:29:30 10° ENE
Cosmos 909 Rocket 4.2 21:20:28 10° NNW 21:26:49 83° ENE 21:34:02 10° SSE
Cosmos 1725 Rocket 4.2 21:23:01 10° SSE 21:28:55 50° E 21:34:53 10° NNE
Cosmos 1980 Rocket 2.5 21:26:06 10° NNW 21:31:40 55° ENE 21:37:13 10° SE
USA 238 DEB 3.7 21:27:22 10° SSW 21:34:10 69° ESE 21:41:04 10° NE
USA 238 3.7 21:27:30 10° SSW 21:34:16 69° ESE 21:41:10 10° NE
Cosmos 1812 2.9 21:31:32 10° SSW 21:35:21 75° W 21:39:13 10° N
YAOGAN 6 3.4 21:32:06 10° S 21:35:45 54° W 21:39:24 10° NNW
Cosmos 1666 4.1 21:36:42 10° NNE 21:39:49 22° ENE 21:42:31 12° SE
Cosmos 1743 4.2 21:38:16 10° NNE 21:41:15 21° ENE 21:43:46 12° ESE
Cosmos 1833 Rocket 3.9 21:40:59 10° SW 21:46:24 47° WNW 21:51:51 10° NNE
Abrixas rocket 3.7 21:44:40 10° S 21:46:50 17° SE 21:48:33 12° E
Cosmos 304 Rocket 4.0 21:42:46 10° S 21:47:24 49° ESE 21:52:03 10° NNE
H-2A R/B 3.0 21:44:12 12° SE 21:48:08 30° ENE 21:52:27 10° N
Cosmos 1802 Rocket 4.4 21:42:19 10° SSW 21:48:35 70° W 21:55:00 10° N
ERS-2 3.3 21:50:04 10° S 21:53:34 41° W 21:57:05 10° NNW
DNEPR-1 R/B 3.5 21:50:18 10° SSW 21:54:25 59° ESE 21:59:00 10° NE
ATLAS CENTAUR R/B 1.6 21:50:53 10° NNW 21:55:27 81° ENE 21:59:24 15° SE
Cosmos 2208 Rocket 4.2 21:54:13 10° S 21:59:13 50° ESE 22:04:13 10° NNE
Cosmos 1242 Rocket 3.7 21:57:23 10° NNE 22:00:37 28° ENE 22:02:29 18° ESE
Cosmos 1898 Rocket 4.3 21:56:58 10° N 22:01:54 38° ENE 22:05:31 17° SE
Okean 1 Rocket 3.0 21:58:16 10° N 22:02:39 79° E 22:06:40 12° S
Cosmos 1975 Rocket 3.6 21:59:35 13° SSE 22:02:59 37° E 22:06:58 10° NNE
Cosmos 1674 Rocket 4.3 21:59:41 10° SSW 22:04:03 56° W 22:08:28 10° N
Cosmos 1378 Rocket 3.5 22:00:02 10° S 22:04:21 86° ESE 22:08:41 10° N
Tiangong 2 1.9 22:02:29 10° SW 22:05:18 31° SSE 22:06:44 21° ESE
NOSS 3-2 (A) 3.3 22:02:19 10° SSW 22:08:05 69° ESE 22:14:30 10° NE
USA 234 3.7 22:01:48 10° NE 22:08:18 67° NW 22:14:48 10° WSW
Resurs 01 Rocket 2.9 22:04:23 10° SSW 22:08:31 39° W 22:12:40 10° NNW
BREEZE M DEB (TANK) 3.9 21:57:35 10° WNW 22:09:56 60° NNE 22:13:14 15° E
COSMOS 2487 3.3 22:07:30 10° SSW 22:10:54 52° WNW 22:14:21 10° N
Cosmos 1975 2.8 22:07:09 10° N 22:11:11 67° E 22:14:02 18° SSE
ERS-1 Rocket 3.6 22:07:59 18° SE 22:11:18 41° ENE 22:16:00 10° N
NOSS 3-2 (C) 3.5 22:05:53 10° SSW 22:11:31 52° ESE 22:17:43 10° NE
BREEZE-M R/B 2.5 22:07:39 10° WSW 22:12:09 80° NW 22:14:53 10° NE
Cosmos 2233 Rocket 3.9 22:06:45 10° S 22:12:50 71° E 22:19:00 10° NNE
MetOp-A 4.2 22:08:47 15° SSE 22:13:08 66° ENE 22:18:28 10° N
BREEZE-M DEB (TANK) 1.9 22:11:05 10° WNW 22:13:51 41° SW 22:14:31 29° S
Atlas Centaur 2 2.7 22:12:18 10° SW 22:14:38 16° S 22:14:50 16° S
Cosmos 2082 Rocket 4.2 22:11:49 10° WSW 22:16:48 31° WNW 22:21:51 10° N
ATLAS CENTAUR R/B 4.1 22:11:32 10° SSW 22:17:40 71° ESE 22:36:33 10° NE
Cosmos 2322 Rocket 2.8 22:15:09 10° N 22:20:30 43° ENE 22:23:50 21° ESE
Meteor 1-12 Rocket 4.3 22:19:36 10° N 22:25:33 80° E 22:30:07 18° SSE
SL-16 R/B 2.6 22:21:31 10° NNW 22:27:04 52° ENE 22:30:19 24° SE
Cosmos 990 Rocket 4.4 22:25:54 10° N 22:30:57 48° ENE 22:33:35 26° SE
GPS 2-04 Rocket1 3.8 22:29:17 10° WSW 22:33:03 31° SSW 22:34:05 27° SSE
ARGOS 3.2 22:30:47 18° S 22:34:54 78° WSW 22:40:20 10° NNW
SPOT 5 3.3 22:33:17 27° ESE 22:35:00 39° ENE 22:39:10 10° N
Timation 2 Rocket 3.8 22:29:24 10° SSW 22:35:20 77° ESE 22:41:24 10° NNE
Meteor 1-19 Rocket 4.3 22:32:01 10° S 22:37:54 83° E 22:43:52 10° NNE
SJ 16-02 3.4 22:37:58 10° NNE 22:40:39 16° ENE 22:42:00 14° E
Helios 1A 3.3 22:40:33 34° SE 22:41:58 49° ENE 22:45:59 10° N
CENTAUR R/B 2.8 22:42:22 22° S 22:45:37 41° ESE 22:51:45 10° NE
Cosmos 2298 Rocket 4.3 22:41:59 10° N 22:47:11 53° ENE 22:49:22 32° SE
Cosmos 2034 Rocket 4.4 22:49:35 30° SE 22:52:03 43° E 22:57:49 10° NNE
ATLAS 3B R/B 3.8 22:48:51 10° WSW 22:55:44 48° NW 23:02:22 10° NNE
Cosmos 2084 3.2 22:54:01 16° SSW 22:57:23 71° ESE 23:01:30 10° NE
Shenzhou-11 Module 2.5 22:55:13 10° WNW 22:58:09 53° N 22:58:34 47° NE
USA 32 3.9 22:52:55 10° N 22:58:12 85° E 23:00:37 33° S
Cosmos 1464 Rocket 4.0 22:54:32 26° S 22:58:16 68° E 23:04:37 10° NNE
Terra 2.6 22:58:53 31° ESE 23:00:06 37° ENE 23:04:27 10° N
Aureole 2 Rocket 3.4 22:57:33 10° N 22:59:50 29° NE 22:59:50 29° NE
Lacrosse 5 rocket 3.6 22:57:56 10° NNW 23:01:06 19° NNE 23:03:34 13° ENE
USA 245 3.2 23:02:28 50° SW 23:02:59 58° W 23:06:43 10° NNW
ISS -2.3 23:00:03 10° W 23:03:08 38° NNW 23:06:14 10° NE
Cosmos 1937 Rocket 3.4 23:01:03 10° NNW 23:06:12 82° WSW 23:08:05 40° S
Meteor 1-23 Rocket 4.2 23:06:40 38° SSE 23:08:41 61° E 23:14:11 10° NNE
CARTOSAT-1 3.9 23:08:56 45° ESE 23:09:36 49° ENE 23:13:46 10° N
Cosmos 2360 Rocket 2.6 23:07:31 10° NNW 23:13:01 50° ENE 23:14:49 37° ESE
Cosmos 1980 Rocket 4.2 23:11:09 10° NW 23:15:12 20° W 23:19:13 10° SW
Cosmos 1891 Rocket 4.4 23:14:05 31° S 23:17:16 85° E 23:23:37 10° N
Cosmos 1763 Rocket 3.9 23:14:02 13° SSW 23:18:46 63° WNW 23:24:02 10° NNE
CZ-4C R/B 4.2 23:12:52 10° NNW 23:18:59 30° NE 23:24:16 15° E
Cosmos 2219 Rocket 4.1 23:15:31 10° N 23:19:20 18° NE 23:21:44 14° E
Meteor 2-9 Rocket 4.5 23:15:03 10° NNW 23:20:17 59° W 23:22:37 32° SSW
Cosmos 841 Rocket 3.4 23:17:55 30° SSW 23:20:38 86° WNW 23:25:56 10° NNE
Okean 2 4.0 23:21:30 42° ENE 23:21:30 42° ENE 23:25:04 10° NNE
Cosmos 540 Rocket 3.5 23:21:34 51° SE 23:22:17 56° ESE 23:27:21 10° NNE
Abrixas rocket 4.0 23:19:45 10° WSW 23:21:10 23° WSW 23:21:10 23° WSW
SPOT 1/Viking Rocket 3.6 23:21:22 41° S 23:23:10 71° WSW 23:28:20 10° NNW
Cosmos 2333 Rocket 4.1 23:21:20 10° N 23:25:17 19° NE 23:27:46 15° E
H-2A R/B 3.4 23:24:49 18° SW 23:27:29 30° W 23:31:51 10° NW
Cosmos 1340 Rocket 3.5 23:27:06 38° SW 23:28:14 52° WNW 23:32:15 10° N
Helios 1B rocket 2.6 23:24:08 10° N 23:28:16 71° WNW 23:29:08 52° SW
COSMOS 2428 3.9 23:24:05 10° N 23:29:01 29° NE 23:30:47 25° E
CZ-2C R/B 3.3 23:23:59 10° NNE 23:29:13 38° E 23:29:29 38° ESE
IGS 5A 3.3 23:29:53 79° SSE 23:30:07 87° ENE 23:34:18 10° NNW
Cosmos 1356 Rocket 4.2 23:31:39 39° ENE 23:31:39 39° ENE 23:35:03 10° NNE
Meteor 2-4 Rocket 4.4 23:27:43 18° SW 23:31:33 48° WNW 23:36:54 10° N
Cosmos 1455 Rocket 3.8 23:28:01 10° NNW 23:32:10 45° W 23:33:14 37° SW
ATLAS CENTAUR R/B 4.2 23:32:19 10° W 23:33:53 12° WSW 23:35:29 10° SW
Cosmos 1025 Rocket 3.4 23:36:47 51° ENE 23:36:47 51° ENE 23:40:38 10° NNE
Cosmos 1356 4.3 23:36:29 46° WNW 23:36:29 46° WNW 23:39:50 10° N
Cosmos 1833 4.2 23:35:04 34° SSW 23:37:41 87° WNW 23:43:25 10° NNE
Cosmos 372 Rocket 4.2 23:35:39 10° N 23:40:42 55° ENE 23:41:19 51° E
Tiangong 2 3.9 23:38:45 10° W 23:39:03 12° W 23:39:03 12° W
Spot 1 4.1 23:43:17 61° WSW 23:43:25 61° WSW 23:47:28 10° NNW
Meteor 1-29 3.9 23:44:14 10° N 23:47:22 46° WNW 23:47:22 46° WNW
Okean 1-7 Rocket 4.3 23:55:35 44° ENE 23:55:35 44° ENE 23:59:16 10° NNE
H-2A R/B 4.4 23:57:38 13° ENE 23:57:49 13° ENE 23:59:42 10° NE
